Weather History for Ohio State University, OH

Change the Weather History Date:

Monday, September 2, 2013

  Actual Average Record
Temperature  
Mean Temperature 75 °F -  
Max Temperature 82 °F 79 °F 97 °F (2011)
Min Temperature 66 °F 58 °F 52 °F (2001)
Cooling Degree Days 10    
Growing Degree Days 25 (Base 50)    
Moisture  
Dew Point 67 °F    
Average Humidity 81    
Maximum Humidity 100    
Minimum Humidity 60    
Precipitation  
Precipitation 0.00 in - - ()
Sea Level Pressure  
Sea Level Pressure 29.82 in    
Wind  
Wind Speed 6 mph (West)    
Max Wind Speed 18 mph    
Max Gust Speed 24 mph    
Visibility 7 miles    
Events      
Averages and records for this station are not official NWS values.
T = Trace of Precipitation, MM = Missing Value Source: NWS Daily Summary

Daily Weather History Graph

Daily Weather History Graph

Search for Another Location

Airport:

Trip Planner

Search our weather history database for the weather conditions in past years. The results will help you decide how hot, cold, wet, or windy it might be!

Date:

Astronomy

Sep. 02, 2013 Rise Set
Actual Time 7:01 AM EDT 8:01 PM EDT
Civil Twilight 6:33 AM EDT 8:29 PM EDT
Nautical Twilight 6:00 AM EDT 9:02 PM EDT
Astronomical Twilight 5:25 AM EDT 9:36 PM EDT
Moon 4:17 AM EDT (9/2) 6:14 PM EDT (9/2)
Length of Visible Light 13h 56m
Length of Day
13h 00m
Waning Crescent, 8% of the Moon is Illuminated
Sep 2
Waning Crescent
Sep 5
New
Sep 12
First Quarter
Sep 19
Full
Sep 26
Last Quarter

Hourly Weather History & Observations

Time (EDT) Temp. Heat Index Dew Point Humidity Pressure Visibility Wind Dir Wind Speed Gust Speed Precip Events Conditions
12:53 AM 72.0 °F - 69.1 °F 91% 29.78 in 8.0 mi Calm Calm - N/A   Clear
1:53 AM 72.0 °F - 69.1 °F 91% 29.78 in 9.0 mi SSW 3.5 mph - N/A   Partly Cloudy
2:53 AM 69.1 °F - 66.9 °F 93% 29.77 in 8.0 mi WSW 3.5 mph - N/A   Clear
3:53 AM 70.0 °F - 68.0 °F 93% 29.77 in 7.0 mi WSW 5.8 mph - N/A   Clear
4:53 AM 71.1 °F - 69.1 °F 93% 29.78 in 6.0 mi WSW 6.9 mph - N/A   Mostly Cloudy
5:03 AM 69.8 °F - 69.8 °F 100% 29.81 in 6.0 mi West 5.8 mph - N/A   Overcast
5:18 AM 69.8 °F - 68.0 °F 94% 29.81 in 5.0 mi West 3.5 mph - N/A   Mostly Cloudy
5:49 AM 69.8 °F - 68.0 °F 94% 29.81 in 5.0 mi West 5.8 mph - N/A   Mostly Cloudy
5:53 AM 70.0 °F - 68.0 °F 93% 29.79 in 5.0 mi WSW 3.5 mph - N/A   Mostly Cloudy
6:21 AM 69.8 °F - 68.0 °F 94% 29.81 in 5.0 mi Calm Calm - N/A   Scattered Clouds
6:53 AM 69.1 °F - 68.0 °F 96% 29.80 in 4.0 mi Calm Calm - N/A   Clear
7:07 AM 69.8 °F - 68.0 °F 94% 29.82 in 2.0 mi West 3.5 mph - N/A   Clear
7:53 AM 70.0 °F - 69.1 °F 97% 29.81 in 3.0 mi West 4.6 mph - N/A   Partly Cloudy
8:24 AM 71.6 °F - 69.8 °F 94% 29.83 in 3.0 mi West 6.9 mph - N/A   Mostly Cloudy
8:41 AM 71.6 °F - 69.8 °F 94% 29.84 in 3.0 mi WNW 5.8 mph - N/A   Overcast
8:50 AM 71.6 °F - 69.8 °F 94% 29.84 in 2.5 mi West 8.1 mph - N/A   Mostly Cloudy
8:53 AM 71.1 °F - 69.1 °F 93% 29.82 in 2.5 mi WNW 8.1 mph - N/A   Mostly Cloudy
8:57 AM 71.6 °F - 69.8 °F 94% 29.84 in 3.0 mi WNW 8.1 mph - N/A   Mostly Cloudy
9:38 AM 73.4 °F - 69.8 °F 88% 29.84 in 5.0 mi SW 5.8 mph - N/A   Scattered Clouds
9:53 AM 73.9 °F - 69.1 °F 85% 29.82 in 6.0 mi WSW 4.6 mph - N/A   Haze
10:53 AM 78.1 °F - 69.1 °F 74% 29.82 in 9.0 mi WSW 6.9 mph - N/A   Clear
11:43 AM 78.8 °F - 69.8 °F 74% 29.85 in 10.0 mi WSW 6.9 mph - N/A   Mostly Cloudy
11:53 AM 80.1 °F 83.2 °F 70.0 °F 71% 29.83 in 10.0 mi West 10.4 mph 17.3 mph N/A   Overcast
12:53 PM 82.9 °F 85.8 °F 68.0 °F 60% 29.82 in 9.0 mi WSW 13.8 mph 23.0 mph N/A   Mostly Cloudy
1:37 PM 80.6 °F 84.6 °F 71.6 °F 74% 29.85 in 6.0 mi West 15.0 mph 23.0 mph N/A   Haze
1:53 PM 81.0 °F 84.4 °F 70.0 °F 69% 29.82 in 9.0 mi West 18.4 mph 24.2 mph N/A   Mostly Cloudy
2:16 PM 80.6 °F 83.9 °F 69.8 °F 70% 29.84 in 10.0 mi West 16.1 mph - N/A   Overcast
2:53 PM 82.0 °F 84.5 °F 66.9 °F 60% 29.81 in 10.0 mi West 15.0 mph - N/A   Scattered Clouds
3:53 PM 82.9 °F 85.8 °F 68.0 °F 60% 29.80 in 10.0 mi NNW 15.0 mph 18.4 mph N/A   Scattered Clouds
4:53 PM 82.0 °F 84.5 °F 66.9 °F 60% 29.78 in 10.0 mi NW 11.5 mph 16.1 mph N/A   Partly Cloudy
5:53 PM 81.0 °F 83.0 °F 66.0 °F 60% 29.79 in 10.0 mi NNW 9.2 mph - N/A   Mostly Cloudy
6:53 PM 78.1 °F - 64.0 °F 62% 29.81 in 10.0 mi NNW 10.4 mph - N/A   Partly Cloudy
7:53 PM 73.9 °F - 63.0 °F 68% 29.82 in 10.0 mi North 6.9 mph - N/A   Partly Cloudy
8:53 PM 72.0 °F - 61.0 °F 68% 29.83 in 10.0 mi North 5.8 mph - N/A   Clear
9:53 PM 71.1 °F - 60.1 °F 68% 29.85 in 10.0 mi North 8.1 mph - N/A   Clear
10:53 PM 68.0 °F - 57.9 °F 70% 29.87 in 10.0 mi North 8.1 mph - N/A   Clear
11:53 PM 66.9 °F - 57.0 °F 70% 29.88 in 10.0 mi NNW 8.1 mph - N/A   Scattered Clouds